Weather History for Lacon, IL

Change the Weather History Date:

Monday, October 1, 2012

  Actual Average (KPIA) Record (KPIA)
Temperature  
Mean Temperature 58 °F 59 °F  
Max Temperature 68 °F 71 °F 89 °F (1937)
Min Temperature 46 °F 48 °F 32 °F (1920)
Degree Days  
Heating Degree Days 8 7  
Month to date heating degree days 7  
Since 1 July heating degree days 97  
Cooling Degree Days 0 1  
Month to date cooling degree days 1  
Year to date cooling degree days 1025  
Growing Degree Days 8 (Base 50)    
Moisture  
Dew Point 47 °F    
Average Humidity 70    
Maximum Humidity 94    
Minimum Humidity 38    
Precipitation  
Precipitation 0.00 in 0.09 in 1.47 in (1911)
Month to date precipitation 0.09  
Year to date precipitation 28.19  
Snow  
Snow 0.00 in 0.00 in 0.00 in ()
Month to date snowfall 0.0  
Since 1 July snowfall 0.0  
Since 1 September snowfall 0.0  
Snow Depth -    
Sea Level Pressure  
Sea Level Pressure 29.87 in    
Wind  
Wind Speed 1 mph (NNE)    
Max Wind Speed 7 mph    
Max Gust Speed -    
Visibility 10 miles    
Events      
T = Trace of Precipitation, MM = Missing Value Source: NWS Daily Summary

Daily Weather History Graph

Daily Weather History Graph

Search for Another Location

Airport:

Trip Planner

Search our weather history database for the weather conditions in past years. The results will help you decide how hot, cold, wet, or windy it might be!

Date:

Astronomy

Oct. 01, 2012 Rise Set
Actual Time 6:54 AM CDT 6:38 PM CDT
Civil Twilight 6:27 AM CDT 7:06 PM CDT
Nautical Twilight 5:55 AM CDT 7:37 PM CDT
Astronomical Twilight 5:23 AM CDT 8:10 PM CDT
Moon 7:14 PM CDT (10/1) 8:25 AM CDT (10/1)
Length of Visible Light 12h 38m
Length of Day
11h 43m
Full, 98% of the Moon is Illuminated
Oct 1
Full
Oct 8
Last Quarter
Oct 15
New
Oct 21
First Quarter
Oct 29
Full

Hourly Weather History & Observations

Time (CDT) Temp. Dew Point Humidity Pressure Visibility Wind Dir Wind Speed Gust Speed Precip Events Conditions
12:15 AM 53.6 °F 44.6 °F 72% 29.93 in 10.0 mi Calm Calm - N/A   Clear
12:35 AM 51.8 °F 44.6 °F 76% 29.93 in 10.0 mi Calm Calm - N/A   Clear
12:55 AM 50.5 °F 44.2 °F 79% 29.92 in 10.0 mi Calm Calm - N/A   Scattered Clouds
1:15 AM 48.9 °F 44.2 °F 84% 29.92 in 10.0 mi Calm Calm - N/A   Clear
1:35 AM 49.1 °F 44.8 °F 85% 29.91 in 10.0 mi Calm Calm - N/A   Clear
1:55 AM 48.7 °F 44.8 °F 86% 29.91 in 10.0 mi Calm Calm - N/A   Clear
2:15 AM 48.2 °F 44.6 °F 87% 29.91 in 10.0 mi Calm Calm - N/A   Clear
2:35 AM 47.3 °F 44.1 °F 88% 29.90 in 10.0 mi Calm Calm - N/A   Clear
2:55 AM 48.0 °F 44.6 °F 88% 29.90 in 10.0 mi Calm Calm - N/A   Clear
3:15 AM 47.5 °F 45.0 °F 91% 29.90 in 10.0 mi Calm Calm - N/A   Clear
3:35 AM 46.6 °F 44.8 °F 93% 29.89 in 10.0 mi Calm Calm - N/A   Clear
3:55 AM 47.8 °F 45.1 °F 90% 29.89 in 10.0 mi Calm Calm - N/A   Clear
4:15 AM 46.4 °F 44.6 °F 93% 29.90 in 10.0 mi Calm Calm - N/A   Clear
4:35 AM 46.2 °F 44.4 °F 93% 29.89 in 10.0 mi Calm Calm - N/A   Clear
4:55 AM 47.5 °F 45.9 °F 94% 29.89 in 10.0 mi Calm Calm - N/A   Scattered Clouds
5:15 AM 48.2 °F 45.5 °F 90% 29.88 in 10.0 mi Calm Calm - N/A   Clear
5:35 AM 49.3 °F 47.3 °F 93% 29.89 in 10.0 mi Calm Calm - N/A   Scattered Clouds
5:55 AM 49.1 °F 46.9 °F 92% 29.89 in 10.0 mi Calm Calm - N/A   Clear
6:15 AM 48.6 °F 46.0 °F 91% 29.89 in 10.0 mi Calm Calm - N/A   Clear
6:35 AM 48.2 °F 46.4 °F 93% 29.90 in 10.0 mi Calm Calm - N/A   Clear
6:55 AM 48.4 °F 46.4 °F 93% 29.90 in 10.0 mi Calm Calm - N/A   Clear
7:15 AM 49.1 °F 47.1 °F 93% 29.90 in 10.0 mi Calm Calm - N/A   Clear
7:35 AM 49.3 °F 47.3 °F 93% 29.91 in 10.0 mi Calm Calm - N/A   Clear
7:55 AM 50.4 °F 48.2 °F 92% 29.91 in 10.0 mi Calm Calm - N/A   Clear
8:15 AM 51.6 °F 48.7 °F 90% 29.91 in 10.0 mi Calm Calm - N/A   Clear
8:35 AM 52.7 °F 49.1 °F 88% 29.91 in 10.0 mi Calm Calm - N/A   Clear
8:55 AM 54.9 °F 50.4 °F 85% 29.91 in 10.0 mi Calm Calm - N/A   Clear
9:15 AM 56.7 °F 50.5 °F 80% 29.91 in 10.0 mi Calm Calm - N/A   Clear
9:35 AM 58.5 °F 51.1 °F 76% 29.90 in 10.0 mi Calm Calm - N/A   Clear
9:55 AM 59.0 °F 50.0 °F 72% 29.90 in 10.0 mi Calm Calm - N/A   Clear
10:15 AM 61.0 °F 50.0 °F 67% 29.90 in 10.0 mi Calm Calm - N/A   Clear
10:35 AM 62.4 °F 48.9 °F 61% 29.89 in 10.0 mi NNE 3.5 mph - N/A   Clear
10:55 AM 64.0 °F 49.5 °F 59% 29.89 in 10.0 mi NE 4.6 mph - N/A   Clear
11:15 AM 65.1 °F 47.8 °F 54% 29.89 in 10.0 mi ENE 5.8 mph - N/A   Clear
11:35 AM 66.4 °F 47.3 °F 50% 29.89 in 10.0 mi NE 4.6 mph - N/A   Clear
11:55 AM 68.0 °F 46.4 °F 46% 29.88 in 10.0 mi ENE 6.9 mph - N/A   Clear
12:15 PM 68.0 °F 47.1 °F 47% 29.87 in 10.0 mi NNE 5.8 mph - N/A   Clear
12:35 PM 68.7 °F 47.3 °F 46% 29.87 in 10.0 mi NE 6.9 mph - N/A   Clear
12:55 PM 68.0 °F 45.1 °F 44% 29.87 in 10.0 mi NNE 5.8 mph - N/A   Clear
1:15 PM 68.0 °F 45.5 °F 44% 29.85 in 10.0 mi North 5.8 mph - N/A   Clear
1:35 PM 68.7 °F 44.1 °F 41% 29.84 in 10.0 mi NNE 6.9 mph - N/A   Clear
1:55 PM 68.5 °F 44.2 °F 42% 29.84 in 10.0 mi NNE 6.9 mph - N/A   Clear
2:15 PM 68.9 °F 45.0 °F 42% 29.84 in 10.0 mi NE 4.6 mph - N/A   Clear
2:35 PM 69.8 °F 42.8 °F 38% 29.84 in 10.0 mi NNE 6.9 mph - N/A   Clear
2:55 PM 68.5 °F 43.3 °F 40% 29.83 in 10.0 mi North 3.5 mph - N/A   Clear
3:15 PM 68.9 °F 43.5 °F 40% 29.83 in 10.0 mi NNE 3.5 mph - N/A   Clear
3:35 PM 68.5 °F 43.0 °F 40% 29.82 in 10.0 mi NNE 3.5 mph - N/A   Clear
3:55 PM 68.5 °F 44.2 °F 42% 29.82 in 10.0 mi NE 5.8 mph - N/A   Clear
4:15 PM 68.0 °F 44.1 °F 42% 29.82 in 10.0 mi North 3.5 mph - N/A   Clear
4:35 PM 68.0 °F 44.1 °F 42% 29.82 in 10.0 mi Calm Calm - N/A   Clear
4:55 PM 67.5 °F 45.0 °F 44% 29.82 in 10.0 mi Calm Calm - N/A   Clear
5:15 PM 67.1 °F 46.2 °F 47% 29.82 in 10.0 mi Calm Calm - N/A   Clear
5:35 PM 66.2 °F 48.9 °F 54% 29.82 in 10.0 mi Calm Calm - N/A   Clear
5:55 PM 64.4 °F 50.0 °F 59% 29.81 in 10.0 mi Calm Calm - N/A   Clear
6:15 PM 62.6 °F 49.6 °F 63% 29.81 in 10.0 mi Calm Calm - N/A   Clear
6:35 PM 60.8 °F 49.5 °F 66% 29.81 in 10.0 mi Calm Calm - N/A   Clear
6:55 PM 59.4 °F 49.3 °F 69% 29.81 in 10.0 mi Calm Calm - N/A   Clear
7:15 PM 59.0 °F 48.6 °F 68% 29.82 in 10.0 mi Calm Calm - N/A   Clear
7:35 PM 57.6 °F 49.6 °F 75% 29.82 in 10.0 mi Calm Calm - N/A   Clear
7:55 PM 57.2 °F 49.1 °F 74% 29.82 in 10.0 mi Calm Calm - N/A   Clear
8:15 PM 57.2 °F 49.3 °F 75% 29.83 in 10.0 mi Calm Calm - N/A   Clear
8:35 PM 56.7 °F 49.6 °F 77% 29.83 in 10.0 mi Calm Calm - N/A   Clear
8:55 PM 57.2 °F 50.0 °F 77% 29.83 in 10.0 mi Calm Calm - N/A   Clear
9:15 PM 57.2 °F 50.4 °F 78% 29.83 in 10.0 mi Calm Calm - N/A   Clear
9:35 PM 58.1 °F 49.3 °F 72% 29.83 in 10.0 mi NE 3.5 mph - N/A   Clear
9:55 PM 59.2 °F 48.7 °F 68% 29.84 in 10.0 mi NNE 3.5 mph - N/A   Clear
10:15 PM 59.2 °F 48.0 °F 66% 29.83 in 10.0 mi NE 4.6 mph - N/A   Clear
10:35 PM 58.5 °F 48.7 °F 70% 29.83 in 10.0 mi Calm Calm - N/A   Clear
10:55 PM 57.4 °F 49.5 °F 75% 29.83 in 10.0 mi Calm Calm - N/A   Clear
11:15 PM 58.1 °F 47.7 °F 68% 29.83 in 10.0 mi Calm Calm - N/A   Clear
11:35 PM 57.0 °F 50.9 °F 80% 29.82 in 10.0 mi WNW 3.5 mph - N/A   Clear
11:55 PM 57.0 °F 50.9 °F 80% 29.82 in 10.0 mi Calm Calm - N/A   Clear